This is the latest recevied weather packets stored in our database for station/object HB9HJL-11. If no packets are shown the sender has not sent any weather packets the latest 10 day(s).
| Time | Temp. | Humidity | Pressure | Rain* | Wind** | Luminosity | Snow |
|---|---|---|---|---|---|---|---|
| 1777285930 | 22.22° C | 29% | 923 hPa | - | - | - | - |
| 1777285030 | 21.67° C | 29% | 921 hPa | - | - | - | - |
| 1777284130 | 20.56° C | 31% | 922 hPa | - | - | - | - |
| 1777283230 | 21.11° C | 37% | 933 hPa | - | - | - | - |
| 1777282330 | 20.56° C | 39% | 935 hPa | - | - | - | - |
| 1777281430 | 19.44° C | 40% | 934 hPa | - | - | - | - |
| 1777280530 | 19.44° C | 39% | 933 hPa | - | - | - | - |
| 1777279630 | 17.78° C | 42% | 934 hPa | - | - | - | - |
| 1777278730 | 17.78° C | 43% | 937 hPa | - | - | - | - |
| 1777277829 | 16.67° C | 46% | 939 hPa | - | - | - | - |
| 1777276929 | 15° C | 48% | 939 hPa | - | - | - | - |
| 1777276029 | 14.44° C | 51% | 942 hPa | - | - | - | - |
| 1777275129 | 12.78° C | 53% | 943 hPa | - | - | - | - |
| 1777274229 | 12.78° C | 56% | 946 hPa | - | - | - | - |
| 1777273329 | 12.22° C | 58% | 948 hPa | - | - | - | - |
| 1777272429 | 10.56° C | 61% | 949 hPa | - | - | - | - |
| 1777271529 | 9.44° C | 60% | 947 hPa | - | - | - | - |
| 1777270629 | 9.44° C | 63% | 950 hPa | - | - | - | - |
| 1777269729 | 7.78° C | 65% | 951 hPa | - | - | - | - |
| 1777268828 | 7.78° C | 65% | 951 hPa | - | - | - | - |
| 1777267928 | 6.11° C | 68% | 952 hPa | - | - | - | - |
| 1777267028 | 6.11° C | 70% | 953 hPa | - | - | - | - |
| 1777266128 | 5° C | 72% | 954 hPa | - | - | - | - |
| 1777265228 | 4.44° C | 72% | 954 hPa | - | - | - | - |
| 1777264328 | 4.44° C | 72% | 954 hPa | - | - | - | - |
* Rain since midnight (hover to see other rain measurements)
** Current wind speed in m/s (hover to see current wind gust speed)